User: anonymous   Login
Location: Bühlhof
(48.7849°N, 8.6361°E)
Time: 09:45:09
(UTC+00:00)
Language:

YAOGAN 1 - Orbit

View from above orbital plane
View from above orbital plane
View from above satellite
View from above satellite

Ground track
Ground track

The orbit is defined by the following mean orbital elements,

1 29092U          26075.81688676 +.00000000 +00000-0 +98573-4 0 00001
2 29092  97.7548  98.8908 0001530  94.4841 265.6550 14.87600328    03
Epoch (UTC): 16 March 2026 19:36:19
Eccentricity: 0.0001530
inclination: 97.7548°
perigee height: 604 km
apogee height: 607 km
right ascension of ascending node: 98.8908°
argument of perigee: 94.4841°
revolutions per day: 14.87600328
mean anomaly at epoch: 265.6550°

The dashed part of the orbit path shows where the satellite is in the earth's shadow,  

DLR